Location: Poughquag
(41.6090°N, 73.6820°W)
Time: 14:50:04
(UTC-04:00)

Vanguard 2 - Pass Details

Date: 29 May 2020
Orbit: 552 x 2938 km, 32.9° (Epoch: 06 July)

Event Time Altitude Azimuth Distance (km) Brightness Sun altitude
Rises 21:37:34 0° 250° (WSW) 5,369 12.2 -12.2°
Reaches altitude 10° 21:41:55 10° 245° (WSW) 3,959 11.4 -12.8°
Maximum altitude 21:50:44 41° 179° (S) 1,602 8.8 -13.9°
Enters shadow 21:54:51 19° 119° (ESE) 2,067 9.1 -14.4°
